FW7622 Weather Reports


Display with metric or nautical units.
time (UTC)temp
F
wind
direction
speed
MPH
gust
MPH
rain 1hr
in
rain 24hr
in
rain mn
in
humidity
%
barometer
mb
20260508102712 26 143 1.0 1.0 0.00 0.00 0.00 88 1007.2
20260508102210 26 145 1.0 1.0 0.00 0.00 0.00 88 1007.2
20260508101707 26 145 1.0 1.0 0.00 0.00 0.00 88 1007.2
20260508101205 26 145 1.0 1.0 0.00 0.00 0.00 88 1007.2
20260508100702 26 145 1.0 1.0 0.00 0.00 0.00 88 1007.2
20260508100200 26 145 1.0 1.0 0.00 0.00 0.00 88 1007.2
20260508095656 26 145 1.0 1.0 0.00 0.00 0.00 88 1007.7
20260508095153 26 145 1.0 1.0 0.00 0.00 0.00 88 1007.2
20260508094650 27 145 1.0 1.0 0.00 0.00 0.00 86 1007.2
20260508094147 27 145 1.0 1.0 0.00 0.00 0.00 86 1007.2
20260508093644 27 145 1.0 1.0 0.00 0.00 0.00 86 1007.2
20260508093142 27 145 1.0 1.0 0.00 0.00 0.00 86 1007.2
20260508092639 27 145 1.0 1.0 0.00 0.00 0.00 86 1006.9
20260508092137 27 145 1.0 1.0 0.00 0.00 0.00 86 1007.2
20260508091634 27 145 1.0 1.0 0.00 0.00 0.00 86 1007.2
20260508091131 27 149 0.0 0.0 0.00 0.00 0.00 85 1006.9
20260508090629 27 149 0.0 0.0 0.00 0.00 0.00 85 1007.2
20260508090126 27 149 0.0 0.0 0.00 0.00 0.00 85 1007.2
20260508085622 27 151 1.0 1.0 0.00 0.00 0.00 85 1007.2
20260508085120 27 151 1.0 1.0 0.00 0.00 0.00 85 1007.2
20260508084616 27 151 1.0 1.0 0.00 0.00 0.00 85 1007.7
20260508084114 27 156 0.0 0.0 0.00 0.00 0.00 85 1007.7
20260508083610 27 156 0.0 0.0 0.00 0.00 0.00 85 1007.7
20260508083108 27 152 0.0 0.0 0.00 0.00 0.00 85 1007.7
20260508082603 27 150 1.0 1.0 0.00 0.00 0.00 85 1007.7
20260508082100 27 150 1.0 1.0 0.00 0.00 0.00 85 1007.7
20260508081552 27 150 1.0 1.0 0.00 0.00 0.00 85 1007.7
20260508081048 27 150 0.0 1.0 0.00 0.00 0.00 85 1007.7
20260508080546 27 151 0.0 1.0 0.00 0.00 0.00 85 1007.7
20260508080044 27 151 0.0 0.0 0.00 0.00 0.00 85 1007.7
20260508075540 27 152 0.0 0.0 0.00 0.00 0.00 85 1007.7
20260508075037 27 151 0.0 1.0 0.00 0.00 0.00 85 1007.7
20260508074535 27 151 0.0 0.0 0.00 0.00 0.00 84 1007.7
20260508074031 27 151 0.0 0.0 0.00 0.00 0.00 84 1007.7
20260508073529 27 144 1.0 1.0 0.00 0.00 0.00 84 1007.7
20260508073027 28 149 0.0 1.0 0.00 0.00 0.00 84 1007.7
20260508072522 28 148 0.0 0.0 0.00 0.00 0.00 83 1008.0
20260508072020 27 146 1.0 1.0 0.00 0.00 0.00 84 1008.0
20260508071517 27 149 0.0 1.0 0.00 0.00 0.00 84 1008.0
20260508071015 27 149 1.0 1.0 0.00 0.00 0.00 84 1007.7
20260508070512 28 154 0.0 0.0 0.00 0.00 0.00 84 1008.0
20260508070010 28 155 0.0 0.0 0.00 0.00 0.00 83 1008.0
20260508065508 28 155 0.0 0.0 0.00 0.00 0.00 83 1007.7
20260508065006 28 158 0.0 0.0 0.00 0.00 0.00 83 1007.7
20260508064503 28 145 1.0 1.0 0.00 0.00 0.00 83 1008.0
20260508064000 28 144 1.0 1.0 0.00 0.00 0.00 82 1008.0
20260508063458 28 154 1.0 1.0 0.00 0.00 0.00 82 1008.0
20260508062956 28 154 0.0 1.0 0.00 0.00 0.00 82 1008.0
20260508062453 28 152 0.0 0.0 0.00 0.00 0.00 82 1008.0
20260508061949 28 149 0.0 0.0 0.00 0.00 0.00 82 1008.0
20260508061448 28 137 1.0 1.0 0.00 0.00 0.00 82 1008.4
20260508060943 28 137 1.0 1.0 0.00 0.00 0.00 81 1008.4
20260508060441 28 147 1.0 1.0 0.00 0.00 0.00 81 1008.0
20260508055937 28 149 1.0 1.0 0.00 0.00 0.00 81 1008.4
20260508055434 28 156 0.0 0.0 0.00 0.00 0.00 81 1008.4
20260508054930 28 152 0.0 0.0 0.00 0.00 0.00 81 1008.4
20260508054428 29 147 0.0 0.0 0.00 0.00 0.00 81 1008.4
20260508053924 29 145 0.0 1.0 0.00 0.00 0.00 80 1008.4
20260508053421 29 138 1.0 1.0 0.00 0.00 0.00 80 1008.4
20260508052919 29 143 1.0 1.0 0.00 0.00 0.00 80 1008.7
20260508052416 29 148 0.0 0.0 0.00 0.00 0.00 80 1008.7
20260508051912 29 152 0.0 1.0 0.00 0.00 0.00 80 1008.7
20260508051408 30 151 0.0 1.0 0.00 0.00 0.00 79 1008.7
20260508050904 30 146 1.0 1.0 0.00 0.00 0.00 79 1008.4
20260508050402 30 149 1.0 1.0 0.00 0.00 0.00 78 1008.4
20260508045857 30 148 0.0 1.0 0.00 0.00 0.00 78 1008.7
20260508045355 30 147 0.0 1.0 0.00 0.00 0.00 77 1008.4
20260508044853 31 145 0.0 1.0 0.00 0.00 0.00 77 1008.7
20260508044349 31 133 1.0 1.0 0.00 0.00 0.00 77 1008.4
20260508043845 31 149 0.0 0.0 0.00 0.00 0.00 76 1008.7
20260508043343 31 145 1.0 1.0 0.00 0.00 0.00 76 1008.7
20260508042839 31 151 1.0 1.0 0.00 0.00 0.00 76 1008.4
20260508042337 32 154 0.0 1.0 0.00 0.00 0.00 75 1008.7
20260508041833 32 154 0.0 0.0 0.00 0.00 0.00 74 1008.7
20260508041330 33 166 0.0 0.0 0.00 0.00 0.00 74 1008.7
20260508040826 33 146 1.0 1.0 0.00 0.00 0.00 73 1008.7
20260508040324 33 146 1.0 1.0 0.00 0.00 0.00 73 1008.7
20260508035821 33 146 1.0 1.0 0.00 0.00 0.00 73 1008.7
20260508035318 33 146 1.0 1.0 0.00 0.00 0.00 72 1008.7
20260508034815 34 133 1.0 1.0 0.00 0.00 0.00 72 1008.7
20260508034312 34 142 1.0 1.0 0.00 0.00 0.00 71 1008.7
20260508033809 34 144 1.0 1.0 0.00 0.00 0.00 71 1009.0
20260508033307 34 147 1.0 1.0 0.00 0.00 0.00 71 1008.7
20260508032804 34 147 1.0 1.0 0.00 0.00 0.00 71 1008.7
20260508032305 35 153 0.0 0.0 0.00 0.00 0.00 71 1008.7
20260508031758 35 150 0.0 1.0 0.00 0.00 0.00 70 1008.7
20260508031255 35 161 0.0 0.0 0.00 0.00 0.00 69 1008.7
20260508030751 36 162 0.0 0.0 0.00 0.00 0.00 68 1009.0
20260508030249 36 162 0.0 0.0 0.00 0.00 0.00 67 1009.0
20260508025745 37 156 0.0 0.0 0.00 0.00 0.00 66 1008.7
20260508025242 37 154 0.0 0.0 0.00 0.00 0.00 65 1009.0
20260508024738 37 145 1.0 1.0 0.00 0.00 0.00 64 1008.7
20260508024235 38 151 0.0 1.0 0.00 0.00 0.00 64 1008.7
20260508023732 38 147 1.0 1.0 0.00 0.00 0.00 64 1008.7
20260508023230 39 151 0.0 1.0 0.00 0.00 0.00 62 1008.7
20260508022725 39 155 0.0 0.0 0.00 0.00 0.00 61 1008.7
20260508022222 40 154 0.0 0.0 0.00 0.00 0.00 60 1008.7
20260508021719 40 150 1.0 1.0 0.00 0.00 0.00 58 1008.7
20260508021214 41 160 0.0 0.0 0.00 0.00 0.00 57 1008.7
20260508020712 41 161 0.0 0.0 0.00 0.00 0.00 56 1008.7
20260508020209 42 162 0.0 0.0 0.00 0.00 0.00 56 1008.7
20260508015706 42 157 0.0 0.0 0.00 0.00 0.00 55 1008.7
20260508015203 43 158 0.0 1.0 0.00 0.00 0.00 56 1008.7
20260508014659 44 162 0.0 0.0 0.00 0.00 0.00 56 1008.7
20260508014155 44 166 0.0 0.0 0.00 0.00 0.00 55 1008.4
20260508013652 45 167 0.0 0.0 0.00 0.00 0.00 53 1008.4
20260508013148 45 177 0.0 0.0 0.00 0.00 0.00 52 1008.7
20260508012646 45 177 0.0 0.0 0.00 0.00 0.00 50 1008.4
20260508012143 46 171 0.0 0.0 0.00 0.00 0.00 50 1008.4
20260508011642 48 174 1.0 1.0 0.00 0.00 0.00 46 1008.7
20260508011139 48 166 0.0 0.0 0.00 0.00 0.00 46 1008.4
20260508010635 49 166 0.0 0.0 0.00 0.00 0.00 44 1008.4
20260508010133 50 166 0.0 0.0 0.00 0.00 0.00 44 1008.4
20260508005630 50 167 0.0 0.0 0.00 0.00 0.00 44 1008.4
20260508005126 50 180 1.0 1.0 0.00 0.00 0.00 44 1008.4
20260508004622 51 172 0.0 1.0 0.00 0.00 0.00 43 1008.7
20260508004119 51 171 0.0 0.0 0.00 0.00 0.00 43 1008.0
20260508003615 52 175 0.0 0.0 0.00 0.00 0.00 43 1008.4
20260508003113 52 174 0.0 0.0 0.00 0.00 0.00 41 1008.4
20260508002609 53 181 0.0 1.0 0.00 0.00 0.00 41 1008.4
20260508002107 53 158 1.0 2.0 0.00 0.00 0.00 40 1008.4
20260508001602 53 171 0.0 0.0 0.00 0.00 0.00 39 1008.4
20260508001059 53 192 1.0 1.0 0.00 0.00 0.00 38 1008.4
20260508000554 54 224 3.0 3.0 0.00 0.00 0.00 38 1008.4
20260508000052 54 188 1.0 1.0 0.00 0.00 0.00 39 1008.7
20260507235549 54 167 0.0 0.0 0.00 0.00 0.00 39 1008.4
20260507235046 54 175 1.0 1.0 0.00 0.00 0.00 40 1008.7
20260507234542 54 192 0.0 1.0 0.00 0.00 0.00 40 1008.7
20260507234039 53 175 0.0 0.0 0.00 0.00 0.00 40 1008.7
20260507233536 54 177 0.0 0.0 0.00 0.00 0.00 39 1008.7
20260507233035 55 177 1.0 1.0 0.00 0.00 0.00 37 1008.7
20260507232530 55 222 3.0 5.0 0.00 0.00 0.00 36 1008.4
20260507232028 56 205 1.0 1.0 0.00 0.00 0.00 36 1008.7
20260507231524 56 188 3.0 5.0 0.00 0.00 0.00 35 1008.7
20260507231022 56 128 2.0 3.0 0.00 0.00 0.00 36 1008.7
20260507230518 55 200 1.0 2.0 0.00 0.00 0.00 36 1008.7
20260507230015 56 230 3.0 3.0 0.00 0.00 0.00 35 1008.7
20260507225510 56 204 2.0 2.0 0.00 0.00 0.00 36 1008.7
20260507225007 54 210 1.0 1.0 0.00 0.00 0.00 37 1009.0
20260507224502 55 198 2.0 2.0 0.00 0.00 0.00 36 1009.0
20260507223959 56 164 1.0 2.0 0.00 0.00 0.00 36 1009.0
20260507223455 55 287 3.0 3.0 0.00 0.00 0.00 37 1009.0
20260507222952 54 357 3.0 3.0 0.00 0.00 0.00 37 1009.0
20260507222449 54 173 0.0 0.0 0.00 0.00 0.00 39 1008.7
20260507221945 54 191 2.0 2.0 0.00 0.00 0.00 37 1008.7
20260507221442 55 218 2.0 3.0 0.00 0.00 0.00 36 1009.0
20260507220938 57 174 2.0 3.0 0.00 0.00 0.00 35 1008.7
20260507220436 57 152 1.0 1.0 0.00 0.00 0.00 36 1008.7
20260507215933 58 224 4.0 6.0 0.00 0.00 0.00 34 1009.0
20260507215429 57 21 4.0 5.0 0.00 0.00 0.00 36 1008.7
20260507214926 58 206 4.0 6.0 0.00 0.00 0.00 34 1008.7
20260507214425 58 229 6.0 7.0 0.00 0.00 0.00 34 1008.7
20260507213919 56 195 3.0 3.0 0.00 0.00 0.00 36 1008.7
20260507213411 57 135 3.0 3.0 0.00 0.00 0.00 35 1009.0
20260507212908 57 159 1.0 1.0 0.00 0.00 0.00 36 1009.0
20260507212403 56 200 3.0 3.0 0.00 0.00 0.00 36 1009.0
20260507211900 57 223 3.0 3.0 0.00 0.00 0.00 34 1009.0
20260507211356 58 225 3.0 5.0 0.00 0.00 0.00 35 1009.0
20260507210854 57 168 1.0 1.0 0.00 0.00 0.00 37 1009.0
20260507210351 57 235 2.0 2.0 0.00 0.00 0.00 35 1009.0
20260507205847 57 181 3.0 5.0 0.00 0.00 0.00 36 1009.0
20260507205344 54 142 2.0 3.0 0.00 0.00 0.00 42 1009.4
20260507204840 53 186 1.0 2.0 0.00 0.00 0.00 39 1009.0
20260507204337 53 240 1.0 2.0 0.00 0.00 0.00 40 1009.4
20260507203835 53 327 2.0 2.0 0.00 0.00 0.00 39 1009.4
20260507203333 55 178 1.0 1.0 0.00 0.00 0.00 36 1009.4
20260507202829 55 178 1.0 1.0 0.00 0.00 0.00 39 1009.4
20260507202325 56 199 4.0 6.0 0.00 0.00 0.00 38 1009.4
20260507201821 56 264 4.0 6.0 0.00 0.00 0.00 37 1009.4
20260507201317 57 13 5.0 7.0 0.00 0.00 0.00 37 1009.4
20260507200813 56 84 2.0 2.0 0.00 0.00 0.00 39 1009.7
20260507200309 55 320 2.0 3.0 0.00 0.00 0.00 39 1009.4
20260507195805 56 193 3.0 5.0 0.00 0.00 0.00 39 1009.7
20260507195305 56 132 3.0 3.0 0.00 0.00 0.00 37 1009.7
20260507194800 52 177 0.0 0.0 0.00 0.00 0.00 43 1009.4
20260507194256 52 227 2.0 3.0 0.00 0.00 0.00 39 1009.7
20260507193753 53 169 3.0 3.0 0.00 0.00 0.00 38 1009.7
20260507193250 53 264 2.0 3.0 0.00 0.00 0.00 40 1010.0
20260507192745 55 353 4.0 5.0 0.00 0.00 0.00 39 1010.0
20260507192242 52 329 2.0 3.0 0.00 0.00 0.00 39 1009.7
20260507191738 53 304 3.0 5.0 0.00 0.00 0.00 40 1010.0
20260507191235 54 225 2.0 2.0 0.00 0.00 0.00 38 1009.7
20260507190732 53 187 1.0 1.0 0.00 0.00 0.00 43 1010.0
20260507190231 51 120 1.0 2.0 0.00 0.00 0.00 40 1009.7
20260507185729 52 99 1.0 1.0 0.00 0.00 0.00 41 1009.7
20260507185225 52 139 2.0 3.0 0.00 0.00 0.00 39 1010.0
20260507184723 54 91 4.0 6.0 0.00 0.00 0.00 38 1009.7
20260507184221 53 271 2.0 5.0 0.00 0.00 0.00 41 1009.7
20260507183717 53 150 2.0 2.0 0.00 0.00 0.00 41 1010.0
20260507183214 53 145 3.0 3.0 0.00 0.00 0.00 38 1010.0
20260507182711 52 157 3.0 3.0 0.00 0.00 0.00 40 1010.0
20260507182207 51 227 2.0 3.0 0.00 0.00 0.00 41 1010.0
20260507181703 53 171 2.0 3.0 0.00 0.00 0.00 43 1010.0
20260507181200 53 228 1.0 2.0 0.00 0.00 0.00 43 1010.0
20260507180656 52 184 2.0 2.0 0.00 0.00 0.00 39 1010.0
20260507180154 51 171 2.0 3.0 0.00 0.00 0.00 40 1010.4
20260507175649 50 226 1.0 1.0 0.00 0.00 0.00 43 1010.7
20260507175147 51 333 2.0 6.0 0.00 0.00 0.00 42 1010.4
20260507174643 50 246 3.0 3.0 0.00 0.00 0.00 44 1010.4
20260507174142 50 9 1.0 3.0 0.00 0.00 0.00 44 1010.4
20260507173639 50 209 3.0 3.0 0.00 0.00 0.00 41 1010.7
20260507173136 50 200 2.0 2.0 0.00 0.00 0.00 42 1010.7
20260507172632 51 253 4.0 5.0 0.00 0.00 0.00 40 1010.7
20260507172130 49 183 0.0 0.0 0.00 0.00 0.00 48 1010.7
20260507171629 49 257 3.0 3.0 0.00 0.00 0.00 45 1011.1
20260507171127 50 217 2.0 3.0 0.00 0.00 0.00 43 1010.7
20260507170624 51 181 1.0 2.0 0.00 0.00 0.00 41 1010.7
20260507170121 49 176 2.0 2.0 0.00 0.00 0.00 45 1010.7
20260507165616 49 214 1.0 2.0 0.00 0.00 0.00 45 1010.7
20260507165113 51 177 2.0 3.0 0.00 0.00 0.00 48 1011.1
20260507164609 48 148 1.0 2.0 0.00 0.00 0.00 46 1011.1
20260507164106 48 228 1.0 1.0 0.00 0.00 0.00 48 1011.1
20260507163603 48 25 2.0 5.0 0.00 0.00 0.00 46 1011.1
20260507163101 49 115 1.0 1.0 0.00 0.00 0.00 47 1011.1
20260507162556 51 331 3.0 3.0 0.00 0.00 0.00 45 1011.1
20260507162053 48 151 0.0 1.0 0.00 0.00 0.00 47 1011.1
20260507161549 48 195 0.0 1.0 0.00 0.00 0.00 49 1011.1
20260507161046 47 205 2.0 3.0 0.00 0.00 0.00 50 1011.5
20260507160542 48 201 1.0 2.0 0.00 0.00 0.00 50 1011.5
20260507160039 48 236 0.0 1.0 0.00 0.00 0.00 48 1011.5
20260507155534 50 198 3.0 3.0 0.00 0.00 0.00 49 1011.1
20260507155031 49 212 5.0 6.0 0.00 0.00 0.00 47 1011.5
20260507154528 48 185 2.0 2.0 0.00 0.00 0.00 50 1011.5
20260507154025 46 129 3.0 5.0 0.00 0.00 0.00 52 1011.5
20260507153522 48 204 1.0 2.0 0.00 0.00 0.00 50 1011.5
20260507153018 50 302 4.0 5.0 0.00 0.00 0.00 51 1011.5
20260507152514 47 10 1.0 2.0 0.00 0.00 0.00 53 1011.5
20260507152011 47 315 2.0 2.0 0.00 0.00 0.00 54 1011.5
20260507151507 48 178 1.0 1.0 0.00 0.00 0.00 51 1011.5
20260507151004 47 165 1.0 2.0 0.00 0.00 0.00 51 1011.5
20260507150501 46 38 2.0 2.0 0.00 0.00 0.00 54 1011.5
20260507145957 45 328 3.0 5.0 0.00 0.00 0.00 54 1011.5
20260507145453 47 173 0.0 0.0 0.00 0.00 0.00 50 1011.8
20260507144950 47 222 1.0 1.0 0.00 0.00 0.00 56 1011.8
20260507144447 46 167 2.0 2.0 0.00 0.00 0.00 51 1011.8
20260507143944 46 184 1.0 1.0 0.00 0.00 0.00 55 1011.8
20260507143442 46 36 3.0 5.0 0.00 0.00 0.00 55 1011.8
20260507142938 46 186 2.0 2.0 0.00 0.00 0.00 61 1012.2
20260507142434 46 141 1.0 2.0 0.00 0.00 0.00 58 1012.2
20260507141931 46 200 3.0 3.0 0.00 0.00 0.00 60 1011.8
20260507141427 45 179 2.0 5.0 0.00 0.00 0.00 58 1011.8
20260507140924 45 222 1.0 2.0 0.00 0.00 0.00 62 1012.2
20260507140420 45 236 2.0 3.0 0.00 0.00 0.00 61 1012.2
20260507135919 45 234 3.0 6.0 0.00 0.00 0.00 64 1012.2
20260507135414 44 170 1.0 1.0 0.00 0.00 0.00 65 1012.2
20260507134912 44 317 3.0 3.0 0.00 0.00 0.00 63 1012.2
20260507134408 44 156 1.0 1.0 0.00 0.00 0.00 68 1012.2
20260507133904 42 183 1.0 1.0 0.00 0.00 0.00 68 1012.2
20260507133400 42 177 1.0 2.0 0.00 0.00 0.00 70 1012.2
20260507132859 40 169 0.0 0.0 0.00 0.00 0.00 74 1012.2
20260507132355 40 164 1.0 1.0 0.00 0.00 0.00 74 1012.2
20260507131852 39 161 0.0 0.0 0.00 0.00 0.00 75 1012.5
20260507131349 39 183 1.0 1.0 0.00 0.00 0.00 75 1012.5
20260507130846 38 176 0.0 0.0 0.00 0.00 0.00 76 1012.5
20260507130343 38 172 0.0 1.0 0.00 0.00 0.00 77 1012.5
20260507125842 38 175 0.0 0.0 0.00 0.00 0.00 76 1012.5
20260507125339 38 167 0.0 0.0 0.00 0.00 0.00 79 1012.5
20260507124836 37 167 0.0 0.0 0.00 0.00 0.00 80 1012.5
20260507124332 37 172 0.0 0.0 0.00 0.00 0.00 80 1012.2
20260507123831 37 172 0.0 0.0 0.00 0.00 0.00 82 1012.2
20260507123328 36 172 0.0 0.0 0.00 0.00 0.00 80 1012.5
20260507122824 35 168 0.0 0.0 0.00 0.00 0.00 81 1012.2
20260507122319 35 165 0.0 0.0 0.00 0.00 0.00 84 1012.2
20260507121816 34 164 0.0 0.0 0.00 0.00 0.00 86 1012.2
20260507121312 33 164 0.0 0.0 0.00 0.00 0.00 90 1012.5
20260507120808 33 162 0.0 0.0 0.00 0.00 0.00 90 1012.5
20260507120305 32 160 0.0 0.0 0.00 0.00 0.00 90 1012.2
20260507115801 32 156 0.0 0.0 0.00 0.00 0.00 91 1012.2
20260507115257 31 152 0.0 0.0 0.00 0.00 0.00 92 1012.2
20260507114753 31 156 0.0 0.0 0.00 0.00 0.00 92 1012.2
20260507114250 31 156 0.0 0.0 0.00 0.00 0.00 92 1012.2
20260507113747 30 155 1.0 1.0 0.00 0.00 0.00 92 1011.8
20260507113244 30 158 0.0 0.0 0.00 0.00 0.00 92 1012.2
20260507112742 30 158 0.0 0.0 0.00 0.00 0.00 92 1012.2
20260507112238 30 158 0.0 0.0 0.00 0.00 0.00 92 1011.8
20260507111737 30 158 0.0 0.0 0.00 0.00 0.00 92 1012.2
20260507111233 30 156 0.0 1.0 0.00 0.00 0.00 92 1011.8
20260507110728 30 158 0.0 0.0 0.00 0.00 0.00 93 1011.8
20260507110226 30 158 0.0 0.0 0.00 0.00 0.00 92 1012.2
20260507105722 30 158 0.0 0.0 0.00 0.00 0.00 92 1011.8
20260507105218 30 158 0.0 0.0 0.00 0.00 0.00 92 1012.2
20260507104716 30 158 0.0 0.0 0.00 0.00 0.00 92 1012.2
20260507104212 30 158 0.0 0.0 0.00 0.00 0.00 92 1012.2
20260507103708 30 158 0.0 0.0 0.00 0.00 0.00 92 1012.2
20260507103205 30 158 0.0 0.0 0.00 0.00 0.00 92 1012.2